TIME,DELAY(SENSOR),PRES,OXYGEN,RAWTEMP,T(OPTODE),TCPHASE,FLUOR,BETA(BETA700),BETA(BETA412),BETA(BETA440),CDOM,C(CSC),ED(ED411.90),ED(ED443.80),ED(ED489.40),ED(ED554.70),LU(LU412.20),LU(LU443.80),LU(LU489.40),LU(LU555.00),COMP,TILTX,TILTY,CHECK
1361658688,5806,855.3599853515625000,189.0167999267578000,493.8236083984375000,7.7209849357604980,38.4883308410644500,76,367,97,78,80,11783,2146963090,2147519597,2147295241,2147510400,2147087250,2146926235,2147714971,2147122468,1345,-1,9,43081
1361662284,5804,936.9600219726562000,245.5690002441406200,556.2891845703125000,5.7718768119812010,36.3738517761230500,76,383,99,80,81,11775,2146966016,2147520530,2147299282,2147524827,2147089325,2146919131,2147730276,2147121033,2619,-1,9,11123
1361665884,5805,967.5100097656250000,259.8382873535156000,565.2357788085938000,5.4902839660644530,35.8447608947753900,82,387,98,79,81,11772,2146962194,2147519570,2147303734,2147530048,2147085449,2146917741,2147731949,2147121782,3037,-1,8,46945
1361669484,5807,1000.5499877929688000,271.5616149902344000,574.0850219726562000,5.2111029624938965,35.4677009582519500,79,386,99,80,81,11771,2146964315,2147520018,2147301531,2147530130,2147086912,2146916562,2147734464,2147121426,212,-1,8,60284
1361673084,5803,1003.5399780273438000,273.5226135253906000,574.2578735351562000,5.2056431770324710,35.3836288452148440,77,387,99,79,80,11769,2146964918,2147518637,2147303277,2147525632,2147088182,2146921316,2147736164,2147122724,3409,0,9,28255
1361676684,5805,1003.1400146484375000,274.2945861816406000,577.4052124023438000,5.1061840057373050,35.4067497253418000,78,389,99,79,82,11767,2146962221,2147519195,2147305673,2147528539,2147087542,2146926171,2147733869,2147122651,1080,-1,8,6204
1361680284,5805,1009.6599731445312000,277.5681152343750000,578.1616821289062000,5.0822658538818360,35.2761383056640600,83,385,99,80,80,11765,2146965906,2147520164,2147304813,2147529645,2147086939,2146918381,2147737755,2147121572,3319,-1,9,13549
1361683884,5806,1017.0599975585938000,278.3818969726562500,578.1491699218750000,5.0826611518859860,35.2402305603027340,83,387,100,79,81,11765,2146964534,2147519442,2147302692,2147526957,2147089261,2146917942,2147736173,2147123254,3496,-1,8,55067
1361687484,5809,1020.2899780273438000,276.4298095703125000,576.4376831054688000,5.1367659568786620,35.2948608398437500,84,385,99,79,79,11765,2146965760,2147518829,2147301348,2147525229,2147087186,2146917028,2147735442,2147119305,219,0,8,55361
1361691084,5808,1022.9500122070312000,275.0692138671875000,576.6035766601562000,5.1315250396728520,35.3577995300293000,84,382,98,79,81,11761,2146963501,2147518390,2147302043,2147528036,2147089133,2146921069,2147733888,2147120978,50,-1,8,58062
1361694684,5803,1029.6899414062500000,273.5972900390625000,574.0875854492188000,5.2110209465026855,35.3765602111816400,84,383,99,81,80,11761,2146961444,2147517357,2147302281,2147527661,2147087131,2146914148,2147731538,2147122249,3208,-1,9,63254
1361698284,5804,1023.7700195312500000,272.5173034667969000,574.9395141601562000,5.1841130256652830,35.4405593872070300,84,386,99,80,80,11758,2146964955,2147517129,2147305645,2147526482,2147089700,2146914706,2147731501,2147122230,3321,-1,8,44138
1361701884,5803,1023.2399902343750000,272.4306945800781000,573.8499145507812000,5.2185311317443850,35.4246902465820300,84,385,99,79,80,11757,2146964608,2147517632,2147302363,2147527058,2147087030,2146918582,2147733302,2147120484,3572,-1,9,7637
1361705484,5807,1029.9100341796875000,273.1304016113281000,573.9628295898438000,5.2149639129638670,35.3956108093261700,84,385,99,80,80,11756,2146967286,2147517650,2147301705,2147529362,2147085174,2146918016,2147734299,2147118765,3229,-1,9,9565
1361709084,5808,1032.5999755859375000,269.6441955566406000,570.7874755859375000,5.3152117729187010,35.4936904907226560,85,387,99,80,81,11753,2146963547,2147518281,2147303725,2147527387,2147086034,2146924105,2147730395,2147117787,333,-1,8,10240
1361712684,5804,1035.7700195312500000,271.6351928710937500,572.8203125000000000,5.2510452270507810,35.4415702819824200,84,385,100,80,81,11745,2146967030,2147518710,2147302482,2147529472,2147085897,2146921572,2147735168,2147119661,3532,-1,9,16227
1361716284,5806,1035.6500244140625000,267.7242126464844000,570.4846191406250000,5.3247699737548830,35.5754699707031250,84,385,100,79,81,11749,2146963675,2147520009,2147304868,2147525220,2147089179,2146919241,2147736393,2147121627,3154,-1,9,11429
1361719884,5806,1019.6300048828125000,267.5291137695312500,570.2985839843750000,5.3306388854980470,35.5810203552246100,84,388,100,80,80,11747,2146963666,2147519478,2147303753,2147525970,2147088384,2146924909,2147734409,2147122523,200,-1,8,111
1361723484,5803,1019.8400268554688000,269.0217895507812500,572.6267089843750000,5.2571558952331540,35.5561485290527340,84,385,99,80,80,11749,2146964150,2147520091,2147302683,2147523410,2147089234,2146920448,2147735369,2147122752,3382,-1,9,62003
1361727084,5805,1015.5900268554688000,270.6069030761719000,572.6492919921875000,5.2564430236816410,35.4843482971191400,86,385,99,79,81,11747,2146963986,2147520557,2147301723,2147525366,2147091017,2146918418,2147730971,2147119360,3213,-1,9,31037
1361730684,5809,1021.4699707031250000,272.2461853027344000,573.8469238281250000,5.2186222076416020,35.4327888488769500,84,387,99,79,81,11745,2146964608,2147519314,2147299968,2147527552,2147088301,2146919716,2147733421,2147120594,873,-1,8,43312
1361734284,5806,1021.5499877929688000,271.3138122558594000,572.9622802734375000,5.2465610504150390,35.4581985473632800,84,385,99,78,80,11746,2146962962,2147519945,2147302518,2147526390,2147088713,2146923529,2147728923,2147120000,3475,-1,8,34078
1361737884,5806,1022.3499755859375000,269.5932922363281000,573.5443725585938000,5.2281780242919920,35.5469398498535160,84,387,97,81,80,11743,2146961005,2147514176,2147304374,2147527533,2147090240,2146917860,2147736292,2147118198,146,-1,8,38971
1361741484,5804,1025.4399414062500000,269.7213134765625000,572.5817260742188000,5.2585768699646000,35.5232391357421900,84,387,97,80,81,11739,2146962340,2147520758,2147306907,2147529600,2147088530,2146920155,2147733860,2147120576,114,-1,9,3950
1361745084,5806,1028.4799804687500000,268.1264953613281000,569.9528808593750000,5.3415470123291020,35.5475311279296900,84,387,99,80,81,11741,2146961892,2147515675,2147302930,2147530304,2147087277,2146924480,2147734217,2147119433,3194,-1,9,63581
1361748684,5806,1027.6300048828125000,268.3002929687500000,570.1237182617188000,5.3361611366271970,35.5423393249511700,83,389,99,79,80,11740,2146960649,2147521216,2147303753,2147523995,2147088923,2146914249,2147734884,2147117174,3154,-1,9,18619
1361752284,5804,1026.3000488281250000,267.5844116210937500,571.7033081054688000,5.2863078117370605,35.6039695739746100,84,388,98,80,80,11739,2146964498,2147518080,2147301595,2147527972,2147088749,2146917750,2147731090,2147119597,3494,-1,8,18209
1361755884,5807,1024.9499511718750000,268.7125854492187500,572.3994750976562000,5.2643280029296875,35.5658302307128900,83,388,99,80,80,11740,2146963501,2147517933,2147305188,2147526546,2147089060,2146921353,2147730450,2147119460,26,-1,8,4236
1361759484,5804,1036.5300292968750000,268.4700927734375000,570.1652832031250000,5.3348460197448730,35.5353889465332000,82,389,98,80,80,11737,2146963026,2147517184,2147302537,2147526601,2147091062,2146915401,2147731410,2147120320,3202,-1,9,28933
1361763084,5806,1025.3599853515625000,266.9313049316406000,569.9348144531250000,5.3421192169189450,35.6018295288085940,83,386,98,79,80,11735,2146960338,2147517650,2147301888,2147527076,2147090532,2146913728,2147731520,2147120393,3257,-1,8,59752
1361766684,5809,1027.1500244140625000,269.8673095703125000,572.2100219726562000,5.2703108787536620,35.5102310180664060,83,392,100,80,80,11733,2146960338,2147521837,2147304237,2147529856,2147092736,2146918171,2147731702,2147120228,2658,-1,9,57696
1361770284,5807,1024.3299560546875000,268.1126098632812500,570.3264160156250000,5.3297629356384280,35.5545692443847660,84,392,98,79,80,11735,2146963739,2147515538,2147304338,2147529737,2147091638,2146921883,2147734829,2147115776,3547,-1,9,3285
1361773884,5803,1030.0100097656250000,267.2470092773437500,569.7507934570312000,5.3479228019714355,35.5833816528320300,83,389,99,79,81,11732,2146961755,2147520777,2147302134,2147524891,2147088768,2146919981,2147732955,2147118006,3356,-1,8,6857
1361777484,5806,1030.3699951171875000,267.7521972656250000,570.3170166015625000,5.3300590515136720,35.5710182189941400,83,387,98,79,81,11732,2146963766,2147521609,2147303488,2147526034,2147088164,2146915913,2147731840,2147119268,3289,-1,9,53218
1361781084,5805,1031.4699707031250000,266.9248962402344000,569.3936157226562000,5.3591918945312500,35.5921592712402340,82,385,99,80,81,11729,2146961874,2147517522,2147304009,2147527936,2147088804,2146917321,2147733293,2147118793,3290,-1,9,43667
1361784684,5808,994.1900024414062000,261.4071960449219000,564.9097290039062000,5.5005612373352050,35.7650299072265600,82,384,98,80,81,11730,2146961929,2147517778,2147302619,2147524662,2147087680,2146916370,2147733266,2147118857,152,0,8,10189
1361788284,5803,993.6799926757812000,262.9596862792969000,566.2797851562500000,5.4573798179626465,35.7180786132812500,84,387,98,80,80,11730,2146960868,2147517732,2147305874,2147524580,2147092260,2146915858,2147732489,2147120210,2756,0,9,26403
1361791884,5805,1003.1099853515625000,263.5226135253906000,565.7028198242188000,5.4755649566650390,35.6812782287597660,82,393,98,80,80,11727,2146962706,2147521755,2147303917,2147527131,2147087661,2146920000,2147728393,2147118473,2784,-1,9,64362
1361795484,5808,999.7100219726562000,262.0253906250000000,564.8778076171875000,5.5015640258789060,35.7359809875488300,82,388,98,79,80,11726,2146964187,2147518902,2147300004,2147529078,2147086427,2146921197,2147730642,2147121033,707,-1,8,41785
1361799084,5806,996.6699829101562000,261.0783996582031000,564.7813110351562000,5.5046038627624510,35.7785301208496100,83,389,99,78,80,11725,2146963858,2147517028,2147303149,2147524571,2147087058,2146918829,2147730925,2147119506,2439,-1,9,51441
1361802684,5805,1002.7500000000000000,260.9220886230469000,564.2686157226562000,5.5207581520080570,35.7759284973144500,83,388,97,79,81,11721,2146960612,2147516242,2147304548,2147525723,2147087835,2146922578,2147726893,2147118061,3175,-1,8,19287
1361803554,5803,1001.5599975585938000,260.8326110839844000,564.0529785156250000,5.5275478363037110,35.7765808105468750,82,388,100,81,80,11727,2146962240,2147519451,2147301074,2147529078,2147091382,2146920566,2147731483,2147120173,3485,-1,9,48641
